Location: ?????????
(53.2086°N, 54.0693°E)
Time: 07:56:08
(UTC+00:00)

Cosmos 1707 Rocket - Pass Details

Date: 08 December 2019
Orbit: 604 x 633 km, 82.5° (Epoch: 24 January)

Event Time Altitude Azimuth Distance (km) Brightness Sun altitude
Rises 13:15:26 0° 178° (S) 2,910 7.3 -9.6°
Reaches altitude 10° 13:17:41 10° 174° (S) 2,010 6.4 -9.9°
Maximum altitude 13:22:04 59° 96° (E) 738 3.7 -10.5°
Drops below altitude 10° 13:26:29 10° 18° (NNE) 2,030 5.8 -11.1°
Enters shadow 13:28:13 - 15° (NNE) 2,725 6.5 -11.3°
